Tracking 28091 objects as of 29-Sep-2023
HD Live streaming from Space Station
objects crossing your sky now

STARLINK-5577

Track STARLINK-5577 now!
10-day predictions
STARLINK-5577 is classified as:


NORAD ID: 55751
Int'l Code: 2023-028L
Perigee: 576.9 km
Apogee: 581.5 km
Inclination: 70.0 °
Period: 96.1 minutes
Semi major axis: 6950 km
RCS: Unknown
Launch date: March 3, 2023
Source: United States (US)
Launch site: AIR FORCE WESTERN TEST RANGE (AFWTR)
Your satellite tracking list
Your tracking list is empty




NASA's NSSDC Master Catalog

Two Line Element Set (TLE):
1 55751U 23028L   23271.61310990  .00000924  00000-0  85202-4 0  9998
2 55751  70.0009 336.3142 0003311 269.7965  90.2815 14.98328628 32264
Source of the keplerian elements: AFSPC